Location: ?????
(31.8092°N, 35.2590°E)
Time: 20:05:58
(UTC+00:00)

USA 267 - Pass Details

Date: 20 June 2021
Orbit: 1102 x 1106 km, 123.0° (Epoch: 28 July)

Event Time Altitude Azimuth Distance (km) Brightness Sun altitude
Exits shadow 22:46:53 81° 350° (N) 1,117 3.2 -32.5°
Drops below altitude 10° 22:53:06 10° 320° (NW) 2,961 5.8 -32.1°
Sets 22:55:35 0° 320° (NW) 3,921 6.5 -31.9°
